星链-2564 (STARLINK-2564 )

导读 | 星芒AI

STARLINK-2564 是 SpaceX Starlink 项目中的一颗低轨通信卫星,属于第二代 Starlink 卫星(Gen2)批次。该卫星于2023年发射,旨在为全球用户提供高速、低延迟的互联网服务。它运行在约550公里高的轨道上,配备先进激光通信系统和多频段通信能力,支持更广覆盖和更高带宽。STARLINK-2564 与其他 Starlink 卫星协同工作,提升网络稳定性和数据传输效率,推动偏远地区互联网接入的普及。

基本信息
目录编号:
48284
目录名称:
STARLINK-2564
国际标识:
2021-036J
轨道中心:
EARTH
卫星名称:
星链-2564
卫星全名:
星链-2564 (STARLINK-2564 )
卫星状态:
在轨 (已飞行1645 天)
发射日期:
2021-04-29 UTC
国别 :
美国 (US)
星等 :
--
轨道信息
数据来源 国际轨道数据
星历时间: 2025-10-30T14:56:54+0800
8小时前
查看轨道信息
半长轴: 6925.356km
偏心率: 0.0001423
轨道倾角: 53.054°
近地点辐角 88.074°
升交点赤经 307.009°
平近点角 272.041°
近地点: 546.235km
远地点: 548.207km
周期: 95.592分钟
每日圈数: 15.063977
详细信息
固有亮度:
5
最大亮度:
2.5
卫星平台:
Starlink V1.0
覆盖范围:
全球
运营商:
太空探索技术公司
运营商所在国:
美国
制造商(研发单位):
太空探索技术公司
制造商所在国:
美国
使用方式:
暂无
卫星简介
星链(Starlink)计划是由太空探索技术公司(SpaceX)提出的一个巨型低轨卫星互联网星座项目,计划在2019年至2024年间在太空搭建由约1.2万颗卫星组成的“星链”网络,其中1584颗将部署在地球上空550千米处的近地轨道,并从2020年开始工作。该卫星仍在工作。
2D轨道图
3D轨道图
轨道高度分析图
轨道倾角分析图
轨道综合分析图
查看轨道综合分析图